Find Starlink 32670

NORAD ID: 62210 Int'l Des: 2024-229 Owner: SPXS Country: US Constellation: starlink operational
LEOCIRCULAR

Live Position

Loading 3D Globe...

About Starlink 32670

Description loading...

Upcoming Passes

Passes for default location (London). Set your location on the main map for personalized predictions.

Altitude History

Loading altitude history...

Two-Line Element Set

1 62210U 24229U 26121.85294737 .00028476 00000-0 10395-2 0 9994
2 62210 42.9988 330.3323 0001278 258.0325 102.0383 15.27604974 78695
Epoch: May 1, 2026 • Age: 9 hours

Current Status

Altitude 488.3 km
Velocity 7.62 km/s
Sub-Earth Point -24.04°S, 6.32°W
Launch Date Dec 4, 2024
Age 1.4 years
Type internet

Technical Details

Classification Payload
Mass 730.00 kg
Dry Mass 700.00 kg
Total Mass 730.00 kg
Length 0.30 m
Diameter 4.10 m
Span 29.00 m
Shape Box + pan
Manufacturer SPXS
Bus Type Starlink V2M
Phase Status In Orbit
Owner/State SPXS/US

Most Searched